Andri Sucipto

首席球探 - Bali United
3 十二月 2028
星期日
處理

性格

適應力 (16) 野心 (10) 爭議性 (16) 忠誠度 (2) 抗壓 (13) 職業素養 (7) 體育精神 (10) 性情 (14)

個人檔案

執教風格 民主型
教練證照 洲際職業級
決心 6
人員管理 3
激勵 4
紀律 6
工作滿意度
78%
疲勞度
0%
職務 首席球探
薪資 20.7K 每週
合約 14.03.2029

性能

行為 良好
訓練效果
28%
球員發展
15%
傷病預防
30%
戰術執行
25%

近期事件

考察了一名球員 刚刚
参加了招募会议 刚刚
考察了一名球員 刚刚
考察了一名球員 刚刚
考察了一名球員 7天前
考察了一名球員 7天前
考察了一名球員 7天前
考察了一名球員 7天前

正在监控

192
球員 俱樂部 狀態 能力 信心 已观察 最后观察 最新投票
Mauro Valiente Estudiantes 活跃 121 / 116 40% 6 01.12.2028 -
Santiago Rodríguez Gimnasia y Esgrima 活跃 118 / 112 40% 3 01.12.2028 -
Clemente Montes Santiago Wanderers 活跃 133 / 124 40% 3 30.11.2028 -
Riquelme Madura United 活跃 101 / 99 40% 5 29.11.2028 -
Genaro Rossi San Martín SJ 活跃 115 / 104 40% 4 29.11.2028 -
Sylvanus Nimely Neftchi 活跃 102 / 108 40% 1 28.11.2028 -
Enzo González Defensores 活跃 109 / 104 40% 4 27.11.2028 -
Lisandro Cabrera Maipú 活跃 125 / 109 40% 5 27.11.2028 -
Agustín Dávila Cerro Largo 活跃 106 / 95 40% 3 26.11.2028 -
Tiago Taobas Central Norte 活跃 100 / 95 40% 2 26.11.2028 -
Sheriddin Boboev PSM 活跃 88 / 94 40% 4 25.11.2028 -
Fortune Bassey Bunyodkor 活跃 115 / 108 40% 4 25.11.2028 -
Álex Perdomo Defensor Sporting 活跃 99 / 106 40% 2 23.11.2028 -
Andrew Jung Persib 活跃 101 / 107 40% 4 22.11.2028 -
Juan Peinipil Madryn 活跃 100 / 100 40% 4 22.11.2028 -
Dejan Tumbas Persis 活跃 99 / 104 40% 2 21.11.2028 -
Mauro Molina Estudiantes 活跃 119 / 109 40% 1 21.11.2028 -
Ezra Walian Persik 活跃 107 / 105 40% 5 20.11.2028 -
Augusto Berrondo Tristán Suárez 活跃 121 / 108 40% 5 20.11.2028 -
Santiago Sala Güemes 活跃 113 / 113 40% 5 17.11.2028 -
Yehor Kondratiuk Kokand 1912 活跃 103 / 98 40% 1 17.11.2028 -
Camilo Machado Madryn 活跃 106 / 110 40% 4 14.11.2028 -
Juan Rocca Gimnasia y Tiro 活跃 116 / 106 40% 2 13.11.2028 -
Daniel Barrea Godoy Cruz 活跃 120 / 122 40% 6 12.11.2028 -
Vico Maluku Utara United 活跃 114 / 110 40% 3 12.11.2028 -
Nermin Haljeta PSIM 活跃 117 / 103 55% 6 09.11.2028 -
Luis Sandoval Independiente Medellin 活跃 124 / 120 40% 1 09.11.2028 -
Lorenzo Barrera Agropecuario Argentino 活跃 92 / 94 40% 4 07.11.2028 -
Tomás Blanco Estudiantes 活跃 106 / 106 40% 2 06.11.2028 -
Sebastián Marfort Racing 活跃 110 / 102 40% 2 03.11.2028 -
Renzo Conechny Tristán Suárez 活跃 113 / 99 40% 2 02.11.2028 -
Joaquín Zappacosta Morón 活跃 86 / 100 40% 1 02.11.2028 -
Alexis Gómez Persijap 活跃 100 / 107 40% 4 30.10.2028 -
Gonzalo Flores Almirante Brown 活跃 113 / 110 40% 1 30.10.2028 -
Milan Ristovski Bhayangkara Presisi 活跃 119 / 111 40% 7 28.10.2028 -
Bruno Miño Almirante Brown 活跃 111 / 111 40% 5 27.10.2028 -
Tomás Fernández Aldosivi 活跃 118 / 121 40% 1 27.10.2028 -
Sebastián de Marco Fenix 活跃 108 / 106 40% 3 25.10.2028 -
José Barreto Quilmes 活跃 110 / 110 40% 3 24.10.2028 -
Tomás Jerez San Miguel 活跃 103 / 101 40% 3 24.10.2028 -
Gianluca Pugliese Güemes 活跃 111 / 105 40% 3 22.10.2028 -
Bruno Scorza La Luz 活跃 93 / 101 40% 1 22.10.2028 -
Agustín Gallo Tristán Suárez 活跃 112 / 117 40% 7 21.10.2028 -
Jerónimo Porto Lapegüe San Telmo 活跃 104 / 110 40% 6 20.10.2028 -
Abu Kamara Persis 活跃 99 / 98 40% 2 19.10.2028 -
Gustavo França Arema 活跃 114 / 101 40% 4 19.10.2028 -
Sudi Abdallah Persijap 活跃 90 / 95 40% 5 12.10.2028 -
Juan Mendoza Güemes 活跃 112 / 103 40% 3 10.10.2028 -
Owen Falconis Cerrito 活跃 112 / 104 40% 3 07.10.2028 -
Elías Ayala Madryn 活跃 103 / 104 40% 2 05.10.2028 -
Martín Pino Godoy Cruz 活跃 125 / 115 40% 1 04.10.2028 -
Lucas Pedraza Defensores Unidos 活跃 95 / 107 40% 2 02.10.2028 -
Franco Ayunta Temperley 活跃 110 / 114 40% 1 29.09.2028 -
Nicolás Cordero Aldosivi 活跃 112 / 113 40% 1 28.09.2028 -
Anton Fase PSIM 活跃 118 / 98 40% 2 27.09.2028 -
Alejo Mainero Estudiantes 活跃 110 / 108 40% 1 27.09.2028 -
Rodrigo Bogarín Barracas Central 活跃 115 / 122 40% 1 25.09.2028 -
Sebastián Cocimano Nueva Chicago 活跃 117 / 116 40% 3 20.09.2028 -
Mihailo Perović Persebaya 活跃 107 / 106 40% 1 19.09.2028 -
Julián Brea Cobresal 活跃 106 / 102 40% 1 17.09.2028 -
Luca Franco Arsenal 活跃 119 / 105 40% 8 14.09.2028 -
Rubin Hebaj Tobol 活跃 111 / 111 40% 1 13.09.2028 -
Juan David Rueda Alianza Petrolera 活跃 112 / 104 40% 3 31.08.2028 -
Alexey Antilevskiy Slavia Mozyr 活跃 85 / 95 40% 1 31.08.2028 -
Luciano Riveros San Martín SJ 活跃 104 / 115 40% 1 27.08.2028 -
Nahuel Gómez Oriental 活跃 97 / 94 40% 1 27.08.2028 -
Prince Ukachukwu Irtysh 活跃 99 / 111 40% 2 23.08.2028 -
Ayman Sellouf Ordabasy 活跃 116 / 97 40% 1 21.08.2028 -
Gustavo Viera Cerro Largo 活跃 99 / 105 40% 3 20.08.2028 -
Raffaele Sibilio Novara 活跃 89 / 94 40% 1 20.08.2028 -
Maxime Leverbe Vicenza 活跃 123 / 114 40% 1 17.08.2028 -
Andrea Boffelli Lumezzane 活跃 123 / 113 40% 1 17.08.2028 -
Manuele Malotti Livorno 活跃 112 / 109 40% 5 15.08.2028 -
Julián Illanes Carrarese 活跃 121 / 135 40% 1 15.08.2028 -
Franco Camargo Gimnasia y Esgrima 活跃 113 / 110 40% 1 15.08.2028 -
Giuseppe D'Agostino Giugliano 活跃 91 / 115 40% 1 13.08.2028 -
Angelo Guida Siracusa 活跃 96 / 109 40% 5 12.08.2028 -
Mattia Iori Lumezzane 活跃 104 / 119 40% 4 09.08.2028 -
Miguel Falé Pacos de Ferreira 活跃 126 / 117 40% 2 09.08.2028 -
Luca Coccolo Pro Vercelli 活跃 94 / 111 40% 1 09.08.2028 -
Nikola Tavares Barnet 活跃 114 / 103 40% 1 09.08.2028 -
Andrea Mattioli Arzignano 活跃 106 / 99 40% 2 07.08.2028 -
Facundo Krüger Temperley 活跃 111 / 111 40% 1 07.08.2028 -
Alejo Tabares All Boys 活跃 127 / 116 40% 1 07.08.2028 -
Tyler Walker Barrow AFC 活跃 98 / 97 40% 2 05.08.2028 -
Louis Zecevic-John Colchester United 活跃 105 / 119 40% 3 04.08.2028 -
Nicolás Medina Atlanta 活跃 97 / 111 40% 1 04.08.2028 -
Giacomo Zecca Torres 活跃 127 / 111 40% 3 03.08.2028 -
Marcelo Orellana Vis Pesaro 活跃 114 / 120 40% 1 02.08.2028 -
Marcus Dinanga Bromley 活跃 83 / 96 40% 2 30.07.2028 -
Seb Palmer-Houlden Gillingham 活跃 109 / 96 40% 1 29.07.2028 -
King Udoh Pro Patria 活跃 112 / 95 40% 1 29.07.2028 -
Kimarni Smith Newport County 活跃 85 / 108 40% 4 27.07.2028 -
Kelsey Mooney Accrington Stanley 活跃 107 / 97 40% 1 27.07.2028 -
Mathys Jean Marie Vis Pesaro 活跃 104 / 111 40% 4 26.07.2028 -
Alan Cisnero Exeter City 活跃 122 / 102 40% 2 26.07.2028 -
Daniel Udoh Salford City 活跃 114 / 112 40% 1 19.07.2028 -
Eetu Vertainen Triestina 活跃 106 / 110 40% 1 16.07.2028 -
Giuseppe Coppola Picerno 活跃 111 / 112 40% 2 15.07.2028 -
Alessandro Bolzan Arzignano 活跃 86 / 93 40% 4 14.07.2028 -
Shilow Tracey Walsall 活跃 103 / 108 40% 3 11.07.2028 -
Alessandro Ghillani Lumezzane 活跃 122 / 110 40% 6 07.07.2028 -
Thomas Alberti Cavese 活跃 99 / 116 40% 8 05.07.2028 -
Luca Nocerino Foggia 活跃 105 / 115 40% 1 02.07.2028 -
George Lloyd Shrewsbury Town 活跃 109 / 95 40% 2 30.06.2028 -
Matty Stevens AFC Wimbledon 活跃 98 / 113 40% 1 30.06.2028 -
Gianluca D'Auria Potenza 活跃 115 / 114 40% 5 29.06.2028 -
Kamran Aliev SKA Khabarovsk 活跃 115 / 96 40% 4 29.06.2028 -
Anas Alaoui Lecco 活跃 103 / 112 40% 1 28.06.2028 -
Danny Cashman Crawley Town 活跃 95 / 97 40% 1 27.06.2028 -
Aleksej Golijanin Sokol 活跃 80 / 102 40% 1 23.06.2028 -
Alen Vukaj Alcione Milano 活跃 107 / 100 40% 1 22.06.2028 -
Ilja Safronov Rotor 活跃 118 / 111 40% 7 18.06.2028 -
Léo Abreu Picerno 活跃 108 / 104 40% 3 17.06.2028 -
Andrew Dallas Sambenedettese 活跃 81 / 101 40% 5 16.06.2028 -
Alessandro Faggioli Triestina 活跃 102 / 92 40% 2 14.06.2028 -
Alessandro Spavone Guidonia Montecelio 活跃 103 / 102 40% 1 11.06.2028 -
Václav Sejk Slovacko 活跃 137 / 116 40% 1 10.06.2028 -
Said Aliev Rotor 活跃 89 / 90 40% 6 09.06.2028 -
Paolo Yrizar Chernomorets 活跃 110 / 92 40% 1 09.06.2028 -
Josh Andrews Cheltenham Town 活跃 87 / 103 40% 3 08.06.2028 -
Axel Gnapi Dable Fakel 活跃 97 / 102 40% 3 08.06.2028 -
Tyler Walton Bromley 活跃 99 / 87 40% 1 07.06.2028 -
Erik Gerbi Carpi 活跃 112 / 98 40% 2 06.06.2028 -
Mikhail Ignatov Sochi 活跃 124 / 115 40% 1 06.06.2028 -
Vladislav Sarveli Nizhniy Novgorod 活跃 107 / 100 40% 2 04.06.2028 -
Yehor Hunichev Feniks 活跃 115 / 100 40% 1 02.06.2028 -
Georg Stojanovski Spartak 1918 活跃 112 / 114 40% 1 31.05.2028 -
Sulayman Jallow Vis Pesaro 活跃 104 / 108 40% 1 31.05.2028 -
Michele Emmausso Cosenza 已拒绝 117 / 96 40% 7 30.05.2028 -
Mattia Florio Altamura 活跃 86 / 88 40% 1 29.05.2028 -
Ismet Sinani Bra 活跃 90 / 97 40% 1 23.05.2028 -
Antonio Energe Crotone 活跃 94 / 109 40% 2 20.05.2028 -
Miloš Bočić Altamura 活跃 95 / 88 40% 1 20.05.2028 -
Vladimir Nikolov Slavia Sofia 活跃 125 / 97 40% 3 11.05.2028 -
Lorenzo De Leo Renate 活跃 94 / 100 40% 2 05.05.2028 -
Matteo Motti Ravenna 活跃 98 / 94 40% 2 03.05.2028 -
Harry McKirdy Tranmere Rovers 已拒绝 106 / 91 40% 2 02.05.2028 -
Luca Mazzeo Picerno 活跃 116 / 103 40% 1 26.04.2028 -
Alexandr Saplinov Volga 活跃 101 / 99 40% 6 24.04.2028 -
Hakeeb Adelakun Doncaster Rovers 活跃 92 / 115 40% 2 24.04.2028 -
Louis Flower Crawley Town 活跃 77 / 93 40% 1 23.04.2028 -
François Kamano Sochi 活跃 117 / 112 40% 4 17.04.2028 -
Simone Palombi Alcione Milano 活跃 90 / 111 40% 1 14.04.2028 -
Bayéré Junior Loué Javor-Matis 活跃 92 / 111 40% 3 13.04.2028 -
Enrico Baldini Bra 活跃 108 / 101 40% 1 11.04.2028 -
Juan Pablo Ramírez Chernomorets 活跃 87 / 93 40% 1 06.04.2028 -
Razhab Magomedov Dinamo Makhachkala 活跃 124 / 102 40% 1 02.04.2028 -
Andrea Luongo Trento 活跃 86 / 110 40% 1 31.03.2028 -
Ilja Rubtsov Chaika 活跃 93 / 86 40% 1 27.03.2028 -
Vincenzo Plescia Latina 活跃 116 / 111 40% 1 26.03.2028 -
Jacobo Alcalde SKA Khabarovsk 活跃 81 / 86 40% 1 25.03.2028 -
Denys Ndukve Kryvbas 活跃 90 / 93 40% 1 25.03.2028 -
Luca Fabrizi Pianese 活跃 105 / 102 40% 1 23.03.2028 -
Daniil Sukhoruchko Metalist 活跃 84 / 93 40% 2 20.03.2028 -
Lewis Jamieson Newport County 活跃 114 / 108 40% 1 19.03.2028 -
Millar Matthews-Lewis Tranmere Rovers 活跃 97 / 93 40% 1 17.03.2028 -
Igor Neves Paysandu 活跃 107 / 105 40% 1 15.03.2028 -
Andrey Okladnikov Yenisey 活跃 96 / 104 40% 1 11.03.2028 -
Surkhaikhan Abdullaev KAMAZ 活跃 102 / 88 40% 1 11.03.2028 -
Jacobo Escobar Vorskla 活跃 84 / 85 40% 1 06.03.2028 -
Stanislav Biblyk Chaika 活跃 112 / 97 40% 1 02.03.2028 -
Aaron Drinan Swindon Town 活跃 101 / 115 40% 1 02.03.2028 -
Jesse Akila Taraz 活跃 112 / 110 40% 2 29.02.2028 -
Francesco Petito Dolomiti Bellunesi 活跃 114 / 107 40% 1 29.02.2028 -
Gianluca Contini Siracusa 活跃 101 / 105 40% 1 28.02.2028 -
Georgy Gongadze Ufa 活跃 89 / 90 40% 1 25.02.2028 -
Migran Ageyan Ufa 活跃 109 / 94 40% 2 23.02.2028 -
Borna Knezović Casarano 活跃 118 / 105 40% 1 21.02.2028 -
Denis M. Kovalevich Dinamo Brest 活跃 102 / 100 40% 1 21.02.2028 -
Jack Vale Sorrento 活跃 103 / 102 40% 2 20.02.2028 -
Alexey Kashtanov Torpedo Moscow 活跃 111 / 104 40% 2 15.02.2028 -
Dominik Begić Bukhara 活跃 92 / 92 40% 1 11.02.2028 -
Idrissa Guèye Virtus Entella 活跃 133 / 135 40% 1 10.02.2028 -
Vladislav Yakovlev Volga 活跃 92 / 92 40% 1 10.02.2028 -
Steven Alfred Torpedo-BelAZ 活跃 104 / 105 40% 1 07.02.2028 -
Will Davies Fleetwood Town 活跃 82 / 100 40% 1 06.02.2028 -
Mattia Tordini Crotone 活跃 97 / 104 40% 1 05.02.2028 -
Esteban Obregón Montevideo City Torque 活跃 113 / 119 40% 1 31.01.2028 -
Uroš Kojić AGMK 活跃 108 / 106 40% 2 29.01.2028 -
Luka Čumić PSM 活跃 111 / 94 40% 2 24.01.2028 -
Dmitry Kamenschikov Chernomorets 活跃 77 / 101 40% 1 24.01.2028 -
Sávio PSM 活跃 102 / 98 40% 2 21.01.2028 -
Ramon Tanque Persib 活跃 91 / 98 40% 1 09.01.2028 -
Marco Miori Alvarado 活跃 100 / 106 40% 1 06.01.2028 -
Andritany Adhiyasa Persija 活跃 66 / 81 55% 1 03.01.2028 -
Ciro 活跃 97 / 98 55% 1 02.06.2027 -
Bernard Henri Doumbia Bhayangkara Presisi 活跃 94 / 79 55% 1 01.01.2027 -
Borja Herrera Persijap 活跃 109 / 102 55% 1 31.08.2026 -
Eduardo Barbosa PSBS Biak 活跃 99 / 87 55% 1 17.08.2026 -
Alexis Steimbach Gimnasia La Plata 活跃 119 / 129 40% 1 02.08.2026 -
Matías Melluso Gimnasia La Plata 活跃 125 / 123 40% 1 02.08.2026 -